Regional Weather Roundup
Issued by NWS San Angelo, TX

Home | Current Version | Previous Version | Text Only | Print | Product List | Glossary On
Versions: 1 2 3 4 5 6 7 8 9 10 11 12 13 14 15 16 17 18 19 20 21 22 23 24 25 26 27 28 29 30 31 32 33 34 35 36 37 38 39 40 41 42 43 44 45 46 47 48 49 50
000
ASUS44 KSJT 020602
RWRSJT
WEST CENTRAL TEXAS REGIONAL WEATHER ROUNDUP
NATIONAL WEATHER SERVICE SAN ANGELO TX
100 AM CDT MON MAY 02 2016

NOTE: "FAIR" INDICATES FEW OR NO CLOUDS BELOW 12,000 FEET WITH NO
SIGNIFICANT WEATHER AND/OR OBSTRUCTIONS TO VISIBILITY.

TXZ049-054-064>066-071>073-076>078-098-099-113-114-127-128-139-140-
154-155-168>170-020700
...LOCATIONS ACROSS WEST CENTRAL TEXAS...

CITY           SKY/WX    TMP DP  RH WIND       PRES   REMARKS
SAN ANGELO     CLOUDY    57  45  64 NE14G24   30.12F
ABILENE        CLOUDY    53  45  74 N22       30.15F
DYESS AFB      NOT AVBL
JUNCTION       CLOUDY    62  46  55 N17       30.06R
SWEETWATER     NOT AVBL
BROWNWOOD      NOT AVBL
COLEMAN        CLOUDY    55  47  74 N18       30.14R
SONORA         NOT AVBL
OZONA          NOT AVBL
BRADY          NOT AVBL
$$

TEXAS PANHANDLE/OKLAHOMA PANHANDLE

CITY           SKY/WX    TMP DP  RH WIND       PRES   REMARKS
AMARILLO       CLOUDY    41  37  86 N9        30.26S WCI  35
BORGER         CLOUDY    44  39  82 CALM      30.27S
CANADIAN       NOT AVBL
DALHART        CLOUDY    41  36  82 N10       30.28F WCI  35
DUMAS          CLOUDY    38  37  93 NW8       30.27S WCI  32
GUYMON         NOT AVBL
HEREFORD       CLOUDY    41  40  93 N5        30.28R WCI  38
PAMPA          NOT AVBL
PERRYTON       NOT AVBL
$$

SOUTHERN PANHANDLE/SOUTH PLAINS/ROLLING PLAINS

CITY           SKY/WX    TMP DP  RH WIND       PRES   REMARKS
LUBBOCK        CLOUDY    45  36  70 N13       30.24F WCI  39
SNYDER           N/A     50  40  68 N16G24    30.20R
CHILDRESS      PTCLDY    48  40  73 N12       30.23S
SEMINOLE       NOT AVBL
$$

PERMIAN BASIN

CITY           SKY/WX    TMP DP  RH WIND       PRES   REMARKS
MIDLAND        CLOUDY    52  38  58 N16       30.20S
ODESSA         CLOUDY    51  37  58 NE16G23   30.21S
WINK           CLOUDY    51  37  58 N13       30.22S
$$

FAR WEST/SOUTHWEST MOUNTAINS/TRANS PECOS

CITY           SKY/WX    TMP DP  RH WIND       PRES   REMARKS
ALPINE         NOT AVBL
DRYDEN           N/A     59  43  55 N17G26    30.12S
EL PASO        CLEAR     47  35  63 NE8       30.18R
FORT STOCKTON  CLOUDY    55  37  50 N12       30.19S
GUADALUPE PASS NOT AVBL
MARFA          CLOUDY    46  35  65 NE23      30.19S WCI  38
PECOS          NOT AVBL
$$

DALLAS/FORT WORTH METROPLEX

CITY           SKY/WX    TMP DP  RH WIND       PRES   REMARKS
DFW AIRPORT    PTCLDY    62  49  62 N20G28    30.06F
FTW MEACHAM    CLEAR     60  50  69 N18G24    30.08S
DAL-EXECUTIVE  PTCLDY    62  50  64 N14G22    30.06S
GRAND PRAIRIE  CLEAR     63  49  61 N14       30.09R
ADDISON        NOT AVBL
MESQUITE       CLOUDY    63  48  58 N16G22    30.07R
LANCASTER      PTCLDY    63  46  53 N10G18    30.07S
$$

NORTH CENTRAL TEXAS

CITY           SKY/WX    TMP DP  RH WIND       PRES   REMARKS
SHRMAN/DENISON NOT AVBL
GAINESVILLE    NOT AVBL
BRIDGEPORT     NOT AVBL
DENTON         CLOUDY    58  50  75 N12       30.08F
WAXAHACHIE     CLOUDY    63  51  66 N12       30.07S
GRANBURY       PTCLDY    60  50  69 NW12      30.11S
$$

WESTERN NORTH TEXAS

CITY           SKY/WX    TMP DP  RH WIND       PRES   REMARKS
WICHITA FALLS  CLOUDY    52  48  86 N14       30.17S
VERNON         NOT AVBL
BRECKENRIDGE   NOT AVBL
COMANCHE       CLOUDY    57  50  77 N14G21    30.10F
$$

CENTRAL AND SOUTH CENTRAL TEXAS

CITY           SKY/WX    TMP DP  RH WIND       PRES   REMARKS
AUSTIN/BERGSTM TSTM      68  55  63 N8        30.00R
WACO           CLOUDY    65  52  62 N13       30.03S
HILLSBORO      NOT AVBL
TEMPLE         PTCLDY    65  54  67 N12       30.02S
KILLEEN-GRAY   NOT AVBL
FORT HOOD      NOT AVBL
GEORGETOWN       N/A    N/A N/A N/A MISG        N/A
LAGO VISTA     CLOUDY    67  51  56 NE14G21   30.01S
SAN MARCOS     CLOUDY    63  57  82 NE12      29.99S
NEW BRAUNFELS  CLOUDY    67  57  70 N5        29.97R THUNDER
RANDOLPH AFB   CLOUDY    70  56  62 N12       29.96S
SAN ANTONIO    CLOUDY    70  53  54 N15G23    29.97F
STINSON        CLOUDY    73  55  53 N12       29.93F
PLEASANTON     NOT AVBL
LA GRANGE      NOT AVBL
GIDDINGS       NOT AVBL
$$

EAST TEXAS

CITY           SKY/WX    TMP DP  RH WIND       PRES   REMARKS
PARIS          MOCLDY    59  45  58 N13       30.04R
CLARKSVILLE    NOT AVBL
TYLER          CLOUDY    67  51  56 N12       30.02R
LONGVIEW       CLOUDY    65  58  78 N7        29.97S
PALESTINE      CLOUDY    62  58  87 N9        30.01S
NACOGDOCHES    CLOUDY    70  68  94 CALM      29.95S
$$

TEXAS HILL COUNTRY AND EDWARDS PLATEAU

CITY           SKY/WX    TMP DP  RH WIND       PRES   REMARKS
LLANO          NOT AVBL
HORSESHOE BAY  CLOUDY    68  52  56 N3        30.04S
KERRVILLE      CLOUDY    65  52  62 NE10G17   30.02F
FREDERICKSBRG  NOT AVBL
ROCKSPRINGS    NOT AVBL
HONDO          CLOUDY    70  55  59 NE14G24   29.97F
UVALDE         NOT AVBL
DEL RIO        CLOUDY    66  57  72 NW6       30.01R
$$

SOUTHEAST TEXAS

CITY           SKY/WX    TMP DP  RH WIND       PRES   REMARKS
COLLEGE STN    CLOUDY    68  60  75 N12       29.97S
CALDWELL       NOT AVBL
CROCKETT       NOT AVBL
BRENHAM        NOT AVBL
HUNTSVILLE     LGT RAIN  71  66  84 NE3       29.96S
CONROE         CLOUDY    71  70  96 NE3       29.94F
HOUSTON BUSH   CLOUDY    72  70  93 E7        29.93S
HOUSTON HOBBY  CLOUDY    76  71  85 E7        29.92S
PERLAND        CLOUDY    76  71  85 CALM      29.93S
WHARTON        NOT AVBL
$$

THE UPPER TEXAS COAST

CITY           SKY/WX    TMP DP  RH WIND       PRES   REMARKS
ORANGE         CLOUDY    72  68  88 E3        29.96S
PORT ARTHUR    CLOUDY    72  70  93 E7        29.93S
GALVESTON      TSTM      73  72  96 N9G25     29.92S VSB 1/2
ANGLETON       LGT RAIN  75  72  90 E7        29.91S
BAY CITY       CLOUDY    76  73  93 E7        29.90S
$$

TEXAS COASTAL BEND, RIO GRANDE PLAINS DEEP SOUTH TEXAS

CITY           SKY/WX    TMP DP  RH WIND       PRES   REMARKS
VICTORIA       CLOUDY    74  72  93 N10       29.90S FOG
BEEVILLE       FAIR      72  65  78 N12       29.89F
ROCKPORT       CLOUDY    80  74  81 E13       29.84F
PORT ARANSAS   NOT AVBL
PORT LAVACA    NOT AVBL
CORPUS CHRISTI CLOUDY    79  73  82 N8        29.85S
KINGSVILLE NAS CLOUDY    76  76 100 N9        29.85F
COTULLA        MOCLDY    74  56  53 NE12      29.92S
LAREDO         CLOUDY    76  65  68 NE15      29.90R
BROWNSVILLE    CLOUDY    78  76  93 NE6       29.81F
PORT ISABEL    MOCLDY    80  76  87 E12       29.81S FOG
HEBBRONVILLE   NOT AVBL
MCALLEN        CLOUDY    81  74  79 NE8       29.83F HAZE
WESLACO        NOT AVBL
FALFURRIAS     CLOUDY    78  74  86 NE7       29.85F
EDINBURG       CLOUDY    79  74  84 N5        29.84F HAZE
$$




USA.gov is the U.S. government's official web portal to all federal, state and local government web resources and services.